Home   Weather   Santa Fe   Past weeks

Flag for USA Past Weather in Santa Fe, New Mexico, USA — Yesterday and Last 2 Weeks

Now
79 °F

Sunny.


Feels Like: 78 °F
Forecast: 46 / 77 °F
Wind: 8 mph from East

Location: Santa Fe County Municipal Airport

Current Time: Sep 28, 2016 at 2:38:00 PM

Latest Report: Sep 28, 2016 at 1:53 PM


Visibility: 10 mi

Pressure: 30.07 "Hg (23.57 "Hg at 2132m altitude)

Humidity: 17%

Dew Point: 30 °F

Location of Santa FeLocation

Past Weather in Santa Fe — Graph

°F

Santa Fe Temperature Yesterday

Maximum temperature yesterday: 75 °F (at 4:53 PM)
Minimum temperature yesterday: 40 °F (at 3:53 AM)
Average temperature yesterday: 57 °F

High & Low Weather Summary for the Past Weeks

 TemperatureHumidityPressure
High87 °F (Sep 19, 2:53 PM)100% (Sep 24, 6:53 AM)30.34 "Hg (Sep 24, 6:53 AM)
Low37 °F (Sep 24, 6:53 AM)8% (Sep 19, 3:53 PM)29.65 "Hg (Sep 23, 2:53 PM)
Average63 °F43%30.00 "Hg
* Reported Sep 13 12:53 PM — Sep 28 12:53 PM, Santa Fe, Weather by CustomWeather, © 2016

Note: Actual official high and low records may vary slightly from our data, if they occured in-between our weather recording intervals... More about our weather records

Advertising

Santa Fe Weather History for the Previous 24 Hours

Scroll right to see more
 ConditionsComfort  
Time TempWeatherWind HumidityBarometerVisibility
12:53 PM
Wed, Sep 28
76 °FSunny.7 mph21%30.10 "Hg10 mi
11:53 AM73 °FSunny.6 mph22%30.11 "Hg10 mi
10:53 AM69 °FSunny.13 mph25%30.13 "Hg10 mi
9:53 AM62 °FSunny.16 mph31%30.16 "Hg10 mi
8:53 AM57 °FSunny.13 mph36%30.13 "Hg10 mi
7:53 AM51 °FSunny.12 mph44%30.14 "Hg10 mi
6:53 AM47 °FClear.12 mph50%30.12 "Hg10 mi
5:53 AM50 °FClear.12 mph46%30.07 "Hg10 mi
4:53 AM50 °FClear.10 mph48%30.04 "Hg10 mi
3:53 AM49 °FClear.10 mph59%30.05 "Hg10 mi
2:53 AM47 °FClear.6 mph64%30.06 "Hg10 mi
1:53 AM45 °FClear.7 mph65%30.07 "Hg10 mi
12:53 AM47 °FClear.6 mph59%30.05 "Hg10 mi
11:53 PM
Tue, Sep 27
51 °FClear.5 mph46%30.06 "Hg10 mi
10:53 PM53 °FClear.6 mph43%30.05 "Hg10 mi
9:53 PM52 °FClear.7 mph49%30.06 "Hg10 mi
8:53 PM62 °FClear.6 mph32%30.06 "Hg10 mi
7:53 PM65 °FClear.No wind26%30.05 "Hg10 mi
6:53 PM67 °FClear.5 mph25%30.04 "Hg10 mi
5:53 PM73 °FSunny.6 mph16%30.01 "Hg10 mi
4:53 PM75 °FSunny.8 mph14%30.01 "Hg10 mi
3:53 PM74 °FSunny.N/A13%30.03 "Hg10 mi
2:53 PM73 °FSunny.5 mph14%30.04 "Hg10 mi
Weather by CustomWeather, © 2016

See weather overviewHow to use our weather pages